{"data":{"norad_id":60121,"epoch":"2026-05-25T04:48:45.840384Z","epoch_age_seconds":57247,"freshness":"FRESH","line1":"1 60121U 24118J   26145.20053056  .00002987  00000+0  29501-4 0  9991","line2":"2 60121  53.1593 203.8361 0001169  70.7029 289.4116 15.69714672110015","mean_motion":15.69714672,"eccentricity":0.0001169,"inclination_deg":53.1593,"raan_deg":203.8361,"arg_perigee_deg":70.7029,"mean_anomaly_deg":289.4116,"bstar":2.9501e-5,"rev_number":11001,"period_min":91.736417177351,"perigee_km":358.92572626775,"apogee_km":360.50103568682,"semimajor_km":6737.8503809773,"source":"CELESTRAK","updated_at":"2026-05-25T13:38:19.167004Z"}}